Time,TemperatureF,DewpointF,PressureIn,WindDirection,WindDirectionDegrees,WindSpeedMPH,WindSpeedGustMPH,Humidity,HourlyPrecipIn,Conditions,Clouds,dailyrainin,SoftwareType,DateUTC
2013-05-24 00:00:00,62.9,62.0,29.76,South,181,4.6,4.6,97,0.01,RA,FEW,0.00,WeatherDisplay:10.37,2013-05-24 04:00:00,
2013-05-24 00:01:00,62.9,62.0,29.76,South,181,1.2,1.2,97,0.01,RA,FEW,0.00,WeatherDisplay:10.37,2013-05-24 04:01:00,
2013-05-24 00:02:00,62.9,62.0,29.76,ESE,105,2.3,2.3,97,0.01,RA,FEW,0.00,WeatherDisplay:10.37,2013-05-24 04:02:00,
2013-05-24 00:07:00,62.8,61.9,29.75,SE,134,2.3,2.3,97,0.01,RA,FEW,0.00,WeatherDisplay:10.37,2013-05-24 04:07:00,
2013-05-24 00:12:00,62.8,61.9,29.75,ENE,62,3.5,3.5,97,0.01,CLR,FEW,0.00,WeatherDisplay:10.37,2013-05-24 04:12:00,
2013-05-24 00:17:00,62.7,61.8,29.75,NE,49,3.0,3.0,97,0.00,CLR,FEW,0.00,WeatherDisplay:10.37,2013-05-24 04:17:00,
2013-05-24 00:22:00,62.7,61.8,29.75,East,85,2.3,2.3,97,0.00,CLR,FEW,0.00,WeatherDisplay:10.37,2013-05-24 04:22:00,
2013-05-24 00:27:00,62.7,61.8,29.75,North,351,3.5,3.5,97,0.00,CLR,FEW,0.00,WeatherDisplay:10.37,2013-05-24 04:27:00,
2013-05-24 00:32:00,62.7,62.1,29.75,ESE,104,3.5,3.5,98,0.00,CLR,FEW,0.00,WeatherDisplay:10.37,2013-05-24 04:32:00,
2013-05-24 00:37:00,62.7,62.1,29.74,SSE,153,2.3,2.3,98,0.00,CLR,FEW,0.00,WeatherDisplay:10.37,2013-05-24 04:37:00,
2013-05-24 00:42:00,62.6,62.0,29.74,SE,128,2.0,2.0,98,0.00,CLR,FEW,0.00,WeatherDisplay:10.37,2013-05-24 04:42:00,
2013-05-24 00:47:00,62.6,62.6,29.74,NE,51,2.3,2.3,100,0.00,CLR,FEW,0.00,WeatherDisplay:10.37,2013-05-24 04:47:00,
2013-05-24 00:52:00,62.6,62.6,29.74,SSE,149,4.0,4.0,100,0.00,CLR,FEW,0.00,WeatherDisplay:10.37,2013-05-24 04:52:00,
2013-05-24 00:57:00,62.5,61.6,29.74,South,177,5.0,5.0,97,0.00,CLR,FEW,0.00,WeatherDisplay:10.37,2013-05-24 04:57:00,
2013-05-24 01:02:00,62.5,61.6,29.74,SSE,150,4.0,4.0,97,0.00,CLR,FEW,0.00,WeatherDisplay:10.37,2013-05-24 05:02:00,
2013-05-24 01:07:00,62.5,61.6,29.74,East,88,3.5,3.5,97,0.00,CLR,FEW,0.00,WeatherDisplay:10.37,2013-05-24 05:07:00,
2013-05-24 01:12:00,62.4,61.5,29.73,SSE,155,1.0,0.0,97,0.00,CLR,FEW,0.00,WeatherDisplay:10.37,2013-05-24 05:12:00,
2013-05-24 01:17:00,62.4,61.5,29.73,East,96,1.2,1.2,97,0.00,CLR,FEW,0.00,WeatherDisplay:10.37,2013-05-24 05:17:00,
2013-05-24 01:22:00,62.4,61.5,29.73,SSE,166,1.2,1.2,97,0.00,CLR,FEW,0.00,WeatherDisplay:10.37,2013-05-24 05:22:00,
2013-05-24 01:27:00,62.3,61.4,29.73,SSE,166,1.2,0.0,97,0.00,CLR,FEW,0.00,WeatherDisplay:10.37,2013-05-24 05:27:00,
2013-05-24 01:32:00,62.3,61.7,29.73,SSE,166,0.0,0.0,98,0.00,CLR,FEW,0.00,WeatherDisplay:10.37,2013-05-24 05:32:00,
2013-05-24 01:37:00,62.3,61.7,29.73,ENE,65,1.2,0.0,98,0.00,CLR,FEW,0.00,WeatherDisplay:10.37,2013-05-24 05:37:00,
2013-05-24 01:42:00,62.3,61.7,29.73,SSE,153,6.0,6.0,98,0.00,CLR,FEW,0.00,WeatherDisplay:10.37,2013-05-24 05:42:00,
2013-05-24 01:47:00,62.3,61.7,29.72,SSW,197,1.2,1.2,98,0.00,CLR,FEW,0.00,WeatherDisplay:10.37,2013-05-24 05:47:00,
2013-05-24 01:52:00,62.3,61.7,29.72,South,189,1.2,0.0,98,0.00,CLR,FEW,0.00,WeatherDisplay:10.37,2013-05-24 05:52:00,
2013-05-24 01:57:00,62.3,61.7,29.72,SE,144,1.2,1.2,98,0.00,CLR,FEW,0.00,WeatherDisplay:10.37,2013-05-24 05:57:00,
2013-05-24 02:02:00,62.3,61.7,29.72,SE,144,2.3,2.3,98,0.00,CLR,FEW,0.00,WeatherDisplay:10.37,2013-05-24 06:02:00,
2013-05-24 02:07:00,62.3,61.7,29.72,SE,144,0.0,0.0,98,0.00,CLR,FEW,0.00,WeatherDisplay:10.37,2013-05-24 06:07:00,
2013-05-24 02:12:00,62.3,61.7,29.71,SE,144,1.2,0.0,98,0.00,CLR,FEW,0.00,WeatherDisplay:10.37,2013-05-24 06:12:00,
2013-05-24 02:17:00,62.3,61.7,29.71,SE,144,0.0,0.0,98,0.00,CLR,FEW,0.00,WeatherDisplay:10.37,2013-05-24 06:17:00,
2013-05-24 02:22:00,62.3,61.7,29.71,SE,144,2.3,2.3,98,0.00,CLR,FEW,0.00,WeatherDisplay:10.37,2013-05-24 06:22:00,
2013-05-24 02:27:00,62.2,61.6,29.70,SE,144,1.2,1.2,98,0.00,CLR,FEW,0.00,WeatherDisplay:10.37,2013-05-24 06:27:00,
2013-05-24 02:32:00,62.2,61.6,29.70,SE,144,1.2,0.0,98,0.00,CLR,FEW,0.00,WeatherDisplay:10.37,2013-05-24 06:32:00,
2013-05-24 02:37:00,62.2,61.6,29.70,SE,144,1.2,1.2,98,0.00,CLR,FEW,0.00,WeatherDisplay:10.37,2013-05-24 06:37:00,
2013-05-24 02:42:00,62.2,61.6,29.69,SE,144,0.0,0.0,98,0.00,CLR,FEW,0.00,WeatherDisplay:10.37,2013-05-24 06:42:00,
2013-05-24 02:47:00,62.2,61.6,29.69,South,183,2.0,2.0,98,0.00,CLR,FEW,0.00,WeatherDisplay:10.37,2013-05-24 06:47:00,
2013-05-24 02:52:00,62.2,61.6,29.69,South,183,0.0,0.0,98,0.00,CLR,FEW,0.00,WeatherDisplay:10.37,2013-05-24 06:52:00,
2013-05-24 02:57:00,62.1,61.5,29.69,South,183,1.2,0.0,98,0.00,CLR,FEW,0.00,WeatherDisplay:10.37,2013-05-24 06:57:00,
2013-05-24 03:02:00,62.1,61.5,29.69,South,183,0.0,0.0,98,0.00,CLR,FEW,0.00,WeatherDisplay:10.37,2013-05-24 07:02:00,
2013-05-24 03:07:00,62.1,61.5,29.68,South,183,1.2,0.0,98,0.00,CLR,FEW,0.00,WeatherDisplay:10.37,2013-05-24 07:07:00,
2013-05-24 03:12:00,62.0,61.4,29.68,South,183,0.0,0.0,98,0.00,CLR,FEW,0.00,WeatherDisplay:10.37,2013-05-24 07:12:00,
2013-05-24 03:17:00,62.0,61.1,29.68,South,183,1.2,1.2,97,0.00,CLR,FEW,0.00,WeatherDisplay:10.37,2013-05-24 07:17:00,
2013-05-24 03:22:00,62.0,61.4,29.67,South,183,1.2,0.0,98,0.00,CLR,FEW,0.00,WeatherDisplay:10.37,2013-05-24 07:22:00,
2013-05-24 03:27:00,61.9,61.3,29.67,South,183,0.0,0.1,98,0.00,CLR,FEW,0.00,WeatherDisplay:10.37,2013-05-24 07:27:00,
2013-05-24 03:32:00,61.9,61.3,29.67,South,183,0.0,0.0,98,0.00,CLR,FEW,0.00,WeatherDisplay:10.37,2013-05-24 07:32:00,
2013-05-24 03:37:00,61.9,61.3,29.67,South,183,1.2,0.0,98,0.00,CLR,FEW,0.00,WeatherDisplay:10.37,2013-05-24 07:37:00,
2013-05-24 03:42:00,61.8,61.2,29.67,South,183,1.2,1.2,98,0.00,CLR,FEW,0.00,WeatherDisplay:10.37,2013-05-24 07:42:00,
2013-05-24 03:47:00,61.8,61.2,29.67,ESE,120,2.3,0.0,98,0.00,CLR,FEW,0.00,WeatherDisplay:10.37,2013-05-24 07:47:00,
2013-05-24 03:52:00,61.8,61.2,29.67,ESE,120,1.2,1.2,98,0.00,CLR,FEW,0.00,WeatherDisplay:10.37,2013-05-24 07:52:00,
2013-05-24 03:57:00,61.7,61.1,29.67,ESE,120,1.2,0.0,98,0.00,CLR,FEW,0.00,WeatherDisplay:10.37,2013-05-24 07:57:00,
2013-05-24 04:02:00,61.7,61.1,29.67,North,5,1.0,1.0,98,0.00,CLR,FEW,0.00,WeatherDisplay:10.37,2013-05-24 08:02:00,
2013-05-24 04:07:00,61.7,61.1,29.67,North,5,0.0,0.0,98,0.00,CLR,FEW,0.00,WeatherDisplay:10.37,2013-05-24 08:07:00,
2013-05-24 04:12:00,61.7,61.1,29.66,SE,144,0.0,0.0,98,0.00,CLR,FEW,0.00,WeatherDisplay:10.37,2013-05-24 08:12:00,
2013-05-24 04:17:00,61.6,61.0,29.66,SE,144,0.0,0.0,98,0.00,CLR,FEW,0.00,WeatherDisplay:10.37,2013-05-24 08:17:00,
2013-05-24 04:22:00,61.6,61.0,29.66,SE,144,1.2,0.0,98,0.00,CLR,FEW,0.00,WeatherDisplay:10.37,2013-05-24 08:22:00,
2013-05-24 04:27:00,61.6,61.0,29.66,SE,144,1.2,1.2,98,0.00,CLR,FEW,0.00,WeatherDisplay:10.37,2013-05-24 08:27:00,
2013-05-24 04:32:00,61.6,61.0,29.66,SE,144,0.0,0.0,98,0.00,CLR,FEW,0.00,WeatherDisplay:10.37,2013-05-24 08:32:00,
2013-05-24 04:37:00,61.6,61.0,29.66,SE,144,1.2,1.2,98,0.00,CLR,FEW,0.00,WeatherDisplay:10.37,2013-05-24 08:37:00,
2013-05-24 04:42:00,61.5,60.9,29.66,SE,144,1.2,1.2,98,0.01,RA,FEW,0.01,WeatherDisplay:10.37,2013-05-24 08:42:00,
2013-05-24 04:47:00,61.5,60.9,29.66,SE,144,0.0,0.0,98,0.01,RA,FEW,0.01,WeatherDisplay:10.37,2013-05-24 08:47:00,
2013-05-24 04:51:00,61.5,60.9,29.66,SE,144,0.0,0.0,98,0.01,CLR,FEW,0.01,WeatherDisplay:10.37,2013-05-24 08:51:00,
2013-05-24 04:56:00,61.5,60.9,29.66,SE,144,0.0,0.0,98,0.01,CLR,FEW,0.01,WeatherDisplay:10.37,2013-05-24 08:56:00,
2013-05-24 05:01:00,61.5,60.9,29.65,SE,144,0.0,0.1,98,0.01,CLR,FEW,0.01,WeatherDisplay:10.37,2013-05-24 09:01:00,
2013-05-24 05:06:00,61.4,60.8,29.65,SE,144,0.0,0.0,98,0.01,CLR,FEW,0.01,WeatherDisplay:10.37,2013-05-24 09:06:00,
2013-05-24 05:11:00,61.5,60.9,29.65,SE,144,0.0,0.0,98,0.01,CLR,FEW,0.01,WeatherDisplay:10.37,2013-05-24 09:11:00,
2013-05-24 05:16:00,61.4,60.8,29.65,SE,144,0.0,0.0,98,0.01,CLR,FEW,0.01,WeatherDisplay:10.37,2013-05-24 09:16:00,
2013-05-24 05:21:00,61.4,60.8,29.64,SE,144,0.0,0.0,98,0.01,CLR,FEW,0.01,WeatherDisplay:10.37,2013-05-24 09:21:00,
2013-05-24 05:26:00,61.4,60.8,29.64,SE,144,1.2,1.2,98,0.01,CLR,FEW,0.01,WeatherDisplay:10.37,2013-05-24 09:26:00,
2013-05-24 05:31:00,61.4,60.8,29.64,SE,144,0.0,0.0,98,0.01,CLR,FEW,0.01,WeatherDisplay:10.37,2013-05-24 09:31:00,
2013-05-24 05:36:00,61.4,60.8,29.64,SE,144,0.0,0.0,98,0.01,CLR,FEW,0.01,WeatherDisplay:10.37,2013-05-24 09:36:00,
2013-05-24 05:41:00,61.3,60.7,29.64,SE,144,0.0,0.0,98,0.00,CLR,FEW,0.01,WeatherDisplay:10.37,2013-05-24 09:41:00,
2013-05-24 05:46:00,61.3,60.7,29.64,SE,144,1.2,0.0,98,0.00,CLR,FEW,0.01,WeatherDisplay:10.37,2013-05-24 09:46:00,
2013-05-24 05:51:00,61.3,60.7,29.63,SE,144,0.0,0.0,98,0.00,CLR,FEW,0.01,WeatherDisplay:10.37,2013-05-24 09:51:00,
2013-05-24 05:56:00,61.4,60.8,29.63,SE,144,2.0,2.0,98,0.00,CLR,FEW,0.01,WeatherDisplay:10.37,2013-05-24 09:56:00,
2013-05-24 06:01:00,61.3,60.7,29.63,SE,144,2.3,2.3,98,0.00,CLR,FEW,0.01,WeatherDisplay:10.37,2013-05-24 10:01:00,
2013-05-24 06:06:00,61.2,60.6,29.64,SE,144,0.0,0.0,98,0.00,CLR,FEW,0.01,WeatherDisplay:10.37,2013-05-24 10:06:00,
2013-05-24 06:11:00,61.3,60.7,29.63,SE,144,0.0,0.0,98,0.00,CLR,FEW,0.01,WeatherDisplay:10.37,2013-05-24 10:11:00,
2013-05-24 06:16:00,61.3,60.7,29.62,SE,144,0.0,0.0,98,0.00,CLR,FEW,0.01,WeatherDisplay:10.37,2013-05-24 10:16:00,
2013-05-24 06:21:00,61.3,60.7,29.62,SE,144,0.0,0.0,98,0.00,CLR,FEW,0.01,WeatherDisplay:10.37,2013-05-24 10:21:00,
2013-05-24 06:26:00,61.3,60.7,29.63,SE,144,0.0,0.0,98,0.00,CLR,FEW,0.01,WeatherDisplay:10.37,2013-05-24 10:26:00,
2013-05-24 06:31:00,61.2,60.6,29.63,SE,144,0.0,0.0,98,0.00,CLR,FEW,0.01,WeatherDisplay:10.37,2013-05-24 10:31:00,
2013-05-24 06:36:00,61.2,60.6,29.64,SE,144,0.0,0.0,98,0.00,CLR,FEW,0.01,WeatherDisplay:10.37,2013-05-24 10:36:00,
2013-05-24 06:41:00,61.3,60.7,29.64,SE,144,0.0,0.0,98,0.00,CLR,FEW,0.01,WeatherDisplay:10.37,2013-05-24 10:41:00,
2013-05-24 06:46:00,61.4,60.8,29.65,NNE,13,1.2,1.2,98,0.00,CLR,FEW,0.01,WeatherDisplay:10.37,2013-05-24 10:46:00,
2013-05-24 06:51:00,61.5,60.9,29.65,NNE,13,0.0,0.0,98,0.00,CLR,FEW,0.01,WeatherDisplay:10.37,2013-05-24 10:51:00,
2013-05-24 06:56:00,61.6,61.0,29.64,East,94,1.2,1.2,98,0.00,CLR,FEW,0.01,WeatherDisplay:10.37,2013-05-24 10:56:00,
2013-05-24 07:01:00,61.7,61.1,29.65,East,94,1.2,0.0,98,0.00,CLR,FEW,0.01,WeatherDisplay:10.37,2013-05-24 11:01:00,
2013-05-24 07:06:00,61.7,61.1,29.65,East,94,1.2,1.2,98,0.00,CLR,FEW,0.01,WeatherDisplay:10.37,2013-05-24 11:06:00,
2013-05-24 07:11:00,61.8,61.2,29.65,NE,45,2.3,2.3,98,0.00,CLR,FEW,0.01,WeatherDisplay:10.37,2013-05-24 11:11:00,
2013-05-24 07:16:00,61.8,61.2,29.65,NE,51,1.2,1.2,98,0.00,CLR,FEW,0.01,WeatherDisplay:10.37,2013-05-24 11:16:00,
2013-05-24 07:21:00,61.9,61.3,29.66,NNE,28,1.2,0.0,98,0.00,CLR,FEW,0.01,WeatherDisplay:10.37,2013-05-24 11:21:00,
2013-05-24 07:26:00,61.8,61.2,29.66,NW,306,1.2,1.2,98,0.00,CLR,FEW,0.01,WeatherDisplay:10.37,2013-05-24 11:26:00,
2013-05-24 07:31:00,61.9,61.3,29.66,NW,320,2.3,2.3,98,0.00,CLR,FEW,0.01,WeatherDisplay:10.37,2013-05-24 11:31:00,
2013-05-24 07:36:00,61.9,61.3,29.66,North,355,2.3,2.3,98,0.00,CLR,FEW,0.01,WeatherDisplay:10.37,2013-05-24 11:36:00,
2013-05-24 07:41:00,62.0,61.4,29.66,North,355,1.2,0.0,98,0.00,CLR,FEW,0.01,WeatherDisplay:10.37,2013-05-24 11:41:00,
2013-05-24 07:46:00,62.0,61.4,29.66,North,355,1.2,0.0,98,0.00,CLR,FEW,0.01,WeatherDisplay:10.37,2013-05-24 11:46:00,
2013-05-24 07:51:00,62.0,61.4,29.67,NE,55,2.3,2.3,98,0.00,CLR,FEW,0.01,WeatherDisplay:10.37,2013-05-24 11:51:00,
2013-05-24 07:56:00,62.0,61.4,29.67,NE,55,1.2,1.2,98,0.00,CLR,FEW,0.01,WeatherDisplay:10.37,2013-05-24 11:56:00,
2013-05-24 08:01:00,61.9,61.3,29.67,NW,326,1.2,0.0,98,0.00,CLR,FEW,0.01,WeatherDisplay:10.37,2013-05-24 12:01:00,
2013-05-24 08:06:00,62.0,61.4,29.68,NNE,30,0.0,0.0,98,0.00,CLR,FEW,0.01,WeatherDisplay:10.37,2013-05-24 12:06:00,
2013-05-24 08:11:00,62.0,61.4,29.68,NNE,30,2.3,2.3,98,0.00,CLR,FEW,0.01,WeatherDisplay:10.37,2013-05-24 12:11:00,
2013-05-24 08:16:00,62.0,61.4,29.68,NNE,30,1.2,1.2,98,0.00,CLR,FEW,0.01,WeatherDisplay:10.37,2013-05-24 12:16:00,
2013-05-24 08:21:00,62.0,61.4,29.68,NNE,26,3.5,3.5,98,0.00,CLR,FEW,0.01,WeatherDisplay:10.37,2013-05-24 12:21:00,
2013-05-24 08:26:00,62.1,61.5,29.68,NNE,27,1.2,1.2,98,0.00,CLR,FEW,0.01,WeatherDisplay:10.37,2013-05-24 12:26:00,
2013-05-24 08:31:00,62.2,61.6,29.69,ESE,123,0.0,0.0,98,0.00,CLR,FEW,0.01,WeatherDisplay:10.37,2013-05-24 12:31:00,
2013-05-24 08:36:00,62.2,61.6,29.69,NNW,345,0.0,0.1,98,0.00,CLR,FEW,0.01,WeatherDisplay:10.37,2013-05-24 12:36:00,
2013-05-24 08:41:00,62.3,61.7,29.69,NNW,347,1.2,0.0,98,0.00,CLR,FEW,0.01,WeatherDisplay:10.37,2013-05-24 12:41:00,
2013-05-24 08:46:00,62.3,61.7,29.70,NNW,347,1.2,1.2,98,0.00,CLR,FEW,0.01,WeatherDisplay:10.37,2013-05-24 12:46:00,
2013-05-24 08:51:00,62.5,61.9,29.70,NNW,347,0.0,0.0,98,0.00,CLR,FEW,0.01,WeatherDisplay:10.37,2013-05-24 12:51:00,
2013-05-24 08:56:00,62.5,61.9,29.69,NNW,347,0.0,0.0,98,0.00,CLR,FEW,0.01,WeatherDisplay:10.37,2013-05-24 12:56:00,
2013-05-24 09:01:00,62.4,61.8,29.70,NNW,347,0.0,0.0,98,0.00,CLR,FEW,0.01,WeatherDisplay:10.37,2013-05-24 13:01:00,
2013-05-24 09:06:00,62.4,61.8,29.70,NNW,347,0.0,0.0,98,0.00,CLR,FEW,0.01,WeatherDisplay:10.37,2013-05-24 13:06:00,
2013-05-24 09:11:00,62.4,61.8,29.70,North,10,0.0,0.0,98,0.00,CLR,FEW,0.01,WeatherDisplay:10.37,2013-05-24 13:11:00,
2013-05-24 09:16:00,62.5,61.9,29.70,North,10,0.0,0.0,98,0.00,CLR,FEW,0.01,WeatherDisplay:10.37,2013-05-24 13:16:00,
2013-05-24 09:21:00,62.6,62.0,29.70,North,10,0.0,0.0,98,0.00,CLR,FEW,0.01,WeatherDisplay:10.37,2013-05-24 13:21:00,
2013-05-24 09:26:00,62.7,62.1,29.69,North,10,0.0,0.0,98,0.00,CLR,FEW,0.01,WeatherDisplay:10.37,2013-05-24 13:26:00,
2013-05-24 09:31:00,62.6,62.0,29.69,North,10,0.0,0.0,98,0.00,CLR,FEW,0.01,WeatherDisplay:10.37,2013-05-24 13:31:00,
2013-05-24 09:36:00,62.7,62.1,29.69,North,10,0.0,0.0,98,0.00,CLR,FEW,0.01,WeatherDisplay:10.37,2013-05-24 13:36:00,
2013-05-24 09:41:00,62.9,62.3,29.69,North,10,0.0,0.0,98,0.00,CLR,FEW,0.01,WeatherDisplay:10.37,2013-05-24 13:41:00,
2013-05-24 09:46:00,63.0,62.4,29.69,North,10,0.0,0.0,98,0.00,CLR,FEW,0.01,WeatherDisplay:10.37,2013-05-24 13:46:00,
2013-05-24 09:51:00,63.2,62.6,29.69,North,10,0.0,0.0,98,0.00,CLR,FEW,0.01,WeatherDisplay:10.37,2013-05-24 13:51:00,
2013-05-24 09:56:00,63.2,62.6,29.69,North,10,0.0,0.0,98,0.00,CLR,FEW,0.01,WeatherDisplay:10.37,2013-05-24 13:56:00,
2013-05-24 10:01:00,63.2,62.6,29.69,ESE,107,1.2,0.0,98,0.00,CLR,FEW,0.01,WeatherDisplay:10.37,2013-05-24 14:01:00,
2013-05-24 10:06:00,63.4,62.8,29.70,ESE,107,0.0,0.0,98,0.00,CLR,FEW,0.01,WeatherDisplay:10.37,2013-05-24 14:06:00,
2013-05-24 10:11:00,63.5,62.9,29.70,ESE,116,2.3,2.3,98,0.01,RA,FEW,0.02,WeatherDisplay:10.37,2013-05-24 14:11:00,
2013-05-24 10:16:00,63.5,62.6,29.70,ESE,116,1.0,1.0,97,0.01,RA,FEW,0.02,WeatherDisplay:10.37,2013-05-24 14:16:00,
2013-05-24 10:21:00,63.7,62.8,29.70,ESE,116,0.0,0.0,97,0.01,,FEW,0.02,WeatherDisplay:10.37,2013-05-24 14:21:00,
2013-05-24 10:26:00,63.7,62.5,29.70,ESE,116,0.0,0.0,96,0.01,CLR,FEW,0.02,WeatherDisplay:10.37,2013-05-24 14:26:00,
2013-05-24 10:31:00,64.1,63.2,29.70,ESE,116,1.2,0.0,97,0.01,CLR,FEW,0.02,WeatherDisplay:10.37,2013-05-24 14:31:00,
2013-05-24 10:36:00,64.2,63.0,29.70,ESE,116,1.2,1.2,96,0.01,CLR,FEW,0.02,WeatherDisplay:10.37,2013-05-24 14:36:00,
2013-05-24 10:41:00,64.3,63.1,29.70,ESE,116,0.0,0.0,96,0.01,CLR,FEW,0.02,WeatherDisplay:10.37,2013-05-24 14:41:00,
2013-05-24 10:46:00,64.5,63.3,29.70,ESE,116,0.0,0.0,96,0.01,CLR,FEW,0.02,WeatherDisplay:10.37,2013-05-24 14:46:00,
2013-05-24 10:51:00,64.3,62.8,29.70,ESE,116,0.0,0.1,95,0.01,CLR,FEW,0.02,WeatherDisplay:10.37,2013-05-24 14:51:00,
2013-05-24 10:56:00,64.4,62.9,29.70,ESE,116,0.0,0.0,95,0.01,CLR,FEW,0.02,WeatherDisplay:10.37,2013-05-24 14:56:00,
2013-05-24 11:01:00,64.6,63.1,29.71,ESE,116,1.2,0.0,95,0.01,CLR,FEW,0.02,WeatherDisplay:10.37,2013-05-24 15:01:00,
2013-05-24 11:06:00,64.6,62.8,29.71,ESE,116,0.0,0.0,94,0.01,CLR,FEW,0.02,WeatherDisplay:10.37,2013-05-24 15:06:00,
2013-05-24 11:11:00,64.6,62.8,29.71,ESE,116,1.2,0.0,94,0.00,CLR,FEW,0.02,WeatherDisplay:10.37,2013-05-24 15:11:00,
2013-05-24 11:16:00,64.7,62.9,29.71,ESE,116,0.0,0.0,94,0.00,CLR,FEW,0.02,WeatherDisplay:10.37,2013-05-24 15:16:00,
2013-05-24 11:21:00,64.7,62.9,29.71,ESE,116,0.0,0.0,94,0.00,CLR,FEW,0.02,WeatherDisplay:10.37,2013-05-24 15:21:00,
2013-05-24 11:26:00,64.7,62.9,29.71,NE,35,0.0,0.0,94,0.00,CLR,FEW,0.02,WeatherDisplay:10.37,2013-05-24 15:26:00,
2013-05-24 11:31:00,64.3,61.9,29.71,SSE,162,2.3,2.3,92,0.00,CLR,FEW,0.02,WeatherDisplay:10.37,2013-05-24 15:31:00,
2013-05-24 11:36:00,63.7,61.3,29.71,North,355,1.2,1.2,92,0.00,CLR,FEW,0.02,WeatherDisplay:10.37,2013-05-24 15:36:00,
2013-05-24 11:41:00,63.1,61.0,29.71,NNE,19,2.3,2.3,93,0.00,CLR,FEW,0.02,WeatherDisplay:10.37,2013-05-24 15:41:00,
2013-05-24 11:46:00,62.9,61.1,29.72,NW,315,1.0,0.0,94,0.00,CLR,FEW,0.02,WeatherDisplay:10.37,2013-05-24 15:46:00,
2013-05-24 11:51:00,62.3,60.2,29.72,NW,313,3.5,3.5,93,0.00,CLR,FEW,0.02,WeatherDisplay:10.37,2013-05-24 15:51:00,
2013-05-24 11:56:00,61.3,58.7,29.72,NW,304,3.5,3.5,91,0.00,CLR,FEW,0.02,WeatherDisplay:10.37,2013-05-24 15:56:00,
2013-05-24 12:01:00,60.2,57.6,29.72,NNW,348,3.5,3.5,91,0.00,CLR,FEW,0.02,WeatherDisplay:10.37,2013-05-24 16:01:00,
2013-05-24 12:06:00,59.5,57.2,29.72,NW,312,3.5,3.5,92,0.00,CLR,FEW,0.02,WeatherDisplay:10.37,2013-05-24 16:06:00,
2013-05-24 12:11:00,59.1,57.1,29.72,NNW,348,3.5,3.5,93,0.00,CLR,FEW,0.02,WeatherDisplay:10.37,2013-05-24 16:11:00,
2013-05-24 12:16:00,59.1,57.1,29.72,WNW,299,3.5,3.5,93,0.00,CLR,FEW,0.02,WeatherDisplay:10.37,2013-05-24 16:16:00,
2013-05-24 12:21:00,59.2,57.2,29.73,NW,323,3.5,3.5,93,0.00,CLR,FEW,0.02,WeatherDisplay:10.37,2013-05-24 16:21:00,
2013-05-24 12:26:00,59.3,57.3,29.72,NNW,345,3.5,3.5,93,0.00,CLR,FEW,0.02,WeatherDisplay:10.37,2013-05-24 16:26:00,
2013-05-24 12:31:00,59.6,57.6,29.72,NW,307,6.9,6.9,93,0.00,CLR,FEW,0.02,WeatherDisplay:10.37,2013-05-24 16:31:00,
2013-05-24 12:36:00,59.4,57.1,29.73,NW,311,3.5,3.5,92,0.00,CLR,FEW,0.02,WeatherDisplay:10.37,2013-05-24 16:36:00,
2013-05-24 12:41:00,59.3,57.0,29.73,NW,325,2.3,2.3,92,0.00,CLR,FEW,0.02,WeatherDisplay:10.37,2013-05-24 16:41:00,
2013-05-24 12:46:00,59.1,56.8,29.73,NE,52,3.5,3.5,92,0.00,CLR,FEW,0.02,WeatherDisplay:10.37,2013-05-24 16:46:00,
2013-05-24 12:51:00,58.8,56.5,29.73,NNW,330,3.5,3.5,92,0.00,CLR,FEW,0.02,WeatherDisplay:10.37,2013-05-24 16:51:00,
2013-05-24 12:56:00,58.3,56.0,29.73,NW,318,3.5,3.5,92,0.00,CLR,FEW,0.02,WeatherDisplay:10.37,2013-05-24 16:56:00,
2013-05-24 13:01:00,57.9,55.3,29.73,WNW,300,3.5,3.5,91,0.00,CLR,FEW,0.02,WeatherDisplay:10.37,2013-05-24 17:01:00,
2013-05-24 13:06:00,58.0,55.7,29.73,NE,37,2.3,2.3,92,0.00,CLR,FEW,0.02,WeatherDisplay:10.37,2013-05-24 17:06:00,
2013-05-24 13:11:00,58.3,55.4,29.73,NNE,27,2.3,2.3,90,0.00,CLR,FEW,0.02,WeatherDisplay:10.37,2013-05-24 17:11:00,
2013-05-24 13:16:00,58.6,56.6,29.73,SSW,206,3.5,3.5,93,0.00,CLR,FEW,0.02,WeatherDisplay:10.37,2013-05-24 17:16:00,
2013-05-24 13:21:00,58.6,55.4,29.74,SSE,162,2.3,2.3,89,0.00,CLR,FEW,0.02,WeatherDisplay:10.37,2013-05-24 17:21:00,
2013-05-24 13:26:00,58.4,54.9,29.74,NE,44,2.3,2.3,88,0.00,CLR,FEW,0.02,WeatherDisplay:10.37,2013-05-24 17:26:00,
2013-05-24 13:31:00,58.3,54.8,29.74,NW,307,3.5,3.5,88,0.00,CLR,FEW,0.02,WeatherDisplay:10.37,2013-05-24 17:31:00,
2013-05-24 13:36:00,58.2,55.0,29.74,ENE,75,1.2,1.2,89,0.00,CLR,FEW,0.02,WeatherDisplay:10.37,2013-05-24 17:36:00,
2013-05-24 13:41:00,57.8,54.0,29.74,WNW,284,5.8,5.8,87,0.00,CLR,FEW,0.02,WeatherDisplay:10.37,2013-05-24 17:41:00,
2013-05-24 13:46:00,57.3,53.8,29.74,WNW,288,5.8,5.8,88,0.00,CLR,FEW,0.02,WeatherDisplay:10.37,2013-05-24 17:46:00,
2013-05-24 13:51:00,56.9,53.4,29.75,WNW,284,5.8,5.8,88,0.00,CLR,FEW,0.02,WeatherDisplay:10.37,2013-05-24 17:51:00,
2013-05-24 13:56:00,56.4,53.2,29.75,ENE,74,3.5,3.5,89,0.00,CLR,FEW,0.02,WeatherDisplay:10.37,2013-05-24 17:56:00,
2013-05-24 14:01:00,56.2,53.3,29.75,SE,134,1.2,1.2,90,0.00,CLR,FEW,0.02,WeatherDisplay:10.37,2013-05-24 18:01:00,
2013-05-24 14:06:00,56.2,53.3,29.75,NNW,340,4.0,4.0,90,0.00,CLR,FEW,0.02,WeatherDisplay:10.37,2013-05-24 18:06:00,
2013-05-24 14:11:00,56.0,52.8,29.75,NW,325,6.9,6.9,89,0.00,CLR,FEW,0.02,WeatherDisplay:10.37,2013-05-24 18:11:00,
2013-05-24 14:16:00,55.6,52.7,29.75,NE,34,2.3,2.3,90,0.00,CLR,FEW,0.02,WeatherDisplay:10.37,2013-05-24 18:16:00,
2013-05-24 14:21:00,55.5,52.6,29.75,NNW,333,5.0,5.0,90,0.00,CLR,FEW,0.02,WeatherDisplay:10.37,2013-05-24 18:21:00,
2013-05-24 14:26:00,55.2,52.3,29.75,WNW,296,3.5,3.5,90,0.00,CLR,FEW,0.02,WeatherDisplay:10.37,2013-05-24 18:26:00,
2013-05-24 14:31:00,54.8,51.9,29.75,NNE,28,8.1,8.1,90,0.01,RA,FEW,0.03,WeatherDisplay:10.37,2013-05-24 18:31:00,
2013-05-24 14:36:00,54.3,51.7,29.75,West,279,4.0,4.0,91,0.01,RA,FEW,0.03,WeatherDisplay:10.37,2013-05-24 18:36:00,
2013-05-24 14:41:00,54.1,51.5,29.75,NW,326,4.6,4.6,91,0.01,,FEW,0.03,WeatherDisplay:10.37,2013-05-24 18:41:00,
2013-05-24 14:46:00,54.1,51.5,29.75,NE,51,5.0,5.0,91,0.01,CLR,FEW,0.03,WeatherDisplay:10.37,2013-05-24 18:46:00,
2013-05-24 14:51:00,54.5,51.6,29.75,North,5,3.5,3.5,90,0.01,CLR,FEW,0.03,WeatherDisplay:10.37,2013-05-24 18:51:00,
2013-05-24 14:56:00,54.7,52.1,29.75,WNW,301,8.1,8.1,91,0.01,CLR,FEW,0.03,WeatherDisplay:10.37,2013-05-24 18:56:00,
2013-05-24 15:01:00,54.4,51.2,29.75,NW,304,2.0,2.0,89,0.01,CLR,FEW,0.03,WeatherDisplay:10.37,2013-05-24 19:01:00,
2013-05-24 15:06:00,54.4,51.2,29.75,NNE,15,9.2,9.2,89,0.01,CLR,FEW,0.03,WeatherDisplay:10.37,2013-05-24 19:06:00,
2013-05-24 15:11:00,54.2,51.0,29.75,ENE,59,11.5,11.5,89,0.01,CLR,FEW,0.03,WeatherDisplay:10.37,2013-05-24 19:11:00,
2013-05-24 15:16:00,54.0,50.8,29.75,NNE,17,3.5,3.5,89,0.01,CLR,FEW,0.03,WeatherDisplay:10.37,2013-05-24 19:16:00,
2013-05-24 15:21:00,53.7,50.5,29.76,NNE,24,4.6,4.6,89,0.01,CLR,FEW,0.03,WeatherDisplay:10.37,2013-05-24 19:21:00,
2013-05-24 15:25:00,53.5,50.6,29.76,NNE,26,4.6,4.6,90,0.01,CLR,FEW,0.03,WeatherDisplay:10.37,2013-05-24 19:25:00,
2013-05-24 15:30:00,53.2,50.3,29.76,ENE,66,2.3,2.3,90,0.00,CLR,FEW,0.03,WeatherDisplay:10.37,2013-05-24 19:30:00,
2013-05-24 15:35:00,53.1,49.9,29.76,East,84,3.5,3.5,89,0.00,CLR,FEW,0.03,WeatherDisplay:10.37,2013-05-24 19:35:00,
2013-05-24 15:40:00,53.0,50.1,29.76,NW,317,4.6,4.6,90,0.00,CLR,FEW,0.03,WeatherDisplay:10.37,2013-05-24 19:40:00,
2013-05-24 15:45:00,53.0,49.8,29.77,NNW,332,6.9,6.9,89,0.00,CLR,FEW,0.03,WeatherDisplay:10.37,2013-05-24 19:45:00,
2013-05-24 15:50:00,52.6,49.4,29.76,West,271,3.5,3.5,89,0.00,CLR,FEW,0.03,WeatherDisplay:10.37,2013-05-24 19:50:00,
2013-05-24 15:55:00,52.4,49.3,29.76,ENE,57,4.0,4.0,89,0.00,CLR,FEW,0.03,WeatherDisplay:10.37,2013-05-24 19:55:00,
2013-05-24 16:00:00,52.5,49.0,29.76,NNE,27,5.8,5.8,88,0.00,CLR,FEW,0.03,WeatherDisplay:10.37,2013-05-24 20:00:00,
2013-05-24 16:05:00,52.6,49.8,29.76,North,349,1.2,1.2,90,0.00,CLR,FEW,0.03,WeatherDisplay:10.37,2013-05-24 20:05:00,
2013-05-24 16:10:00,52.5,48.7,29.76,West,281,3.5,3.5,87,0.00,CLR,FEW,0.03,WeatherDisplay:10.37,2013-05-24 20:10:00,
2013-05-24 16:15:00,52.4,48.9,29.76,West,275,4.6,4.6,88,0.00,CLR,FEW,0.03,WeatherDisplay:10.37,2013-05-24 20:15:00,
2013-05-24 16:20:00,52.4,48.9,29.76,NW,321,4.6,4.6,88,0.00,CLR,FEW,0.03,WeatherDisplay:10.37,2013-05-24 20:20:00,
2013-05-24 16:25:00,52.5,48.7,29.76,NNE,22,11.5,11.5,87,0.00,CLR,FEW,0.03,WeatherDisplay:10.37,2013-05-24 20:25:00,
2013-05-24 16:30:00,52.5,48.7,29.76,WNW,300,4.6,4.6,87,0.00,CLR,FEW,0.03,WeatherDisplay:10.37,2013-05-24 20:30:00,
2013-05-24 16:35:00,52.3,48.5,29.76,ENE,61,6.0,6.0,87,0.00,CLR,FEW,0.03,WeatherDisplay:10.37,2013-05-24 20:35:00,
2013-05-24 16:40:00,52.2,48.8,29.76,NE,45,5.8,5.8,88,0.00,CLR,FEW,0.03,WeatherDisplay:10.37,2013-05-24 20:40:00,
2013-05-24 16:45:00,52.1,48.3,29.76,NW,311,3.5,3.5,87,0.00,CLR,FEW,0.03,WeatherDisplay:10.37,2013-05-24 20:45:00,
2013-05-24 16:50:00,52.0,48.3,29.77,NW,313,3.5,3.5,87,0.00,CLR,FEW,0.03,WeatherDisplay:10.37,2013-05-24 20:50:00,
2013-05-24 16:55:00,51.8,48.1,29.77,East,90,4.6,4.6,87,0.00,CLR,FEW,0.03,WeatherDisplay:10.37,2013-05-24 20:55:00,
2013-05-24 17:00:00,51.7,48.3,29.77,WNW,292,8.1,8.1,88,0.00,CLR,FEW,0.03,WeatherDisplay:10.37,2013-05-24 21:00:00,
2013-05-24 17:05:00,51.4,48.0,29.78,West,264,6.9,6.9,88,0.00,CLR,FEW,0.03,WeatherDisplay:10.37,2013-05-24 21:05:00,
2013-05-24 17:10:00,51.1,47.7,29.78,NW,321,6.9,6.9,88,0.00,CLR,FEW,0.03,WeatherDisplay:10.37,2013-05-24 21:10:00,
2013-05-24 17:15:00,51.0,47.9,29.77,ENE,68,3.5,3.5,89,0.00,CLR,FEW,0.03,WeatherDisplay:10.37,2013-05-24 21:15:00,
2013-05-24 17:20:00,50.8,47.4,29.78,West,275,4.6,4.6,88,0.00,CLR,FEW,0.03,WeatherDisplay:10.37,2013-05-24 21:20:00,
2013-05-24 17:25:00,50.6,46.9,29.78,WNW,286,9.2,9.2,87,0.00,CLR,FEW,0.03,WeatherDisplay:10.37,2013-05-24 21:25:00,
2013-05-24 17:30:00,50.4,46.7,29.77,NNW,347,4.6,4.6,87,0.00,CLR,FEW,0.03,WeatherDisplay:10.37,2013-05-24 21:30:00,
2013-05-24 17:35:00,50.2,47.1,29.77,North,355,9.2,9.2,89,0.00,CLR,FEW,0.03,WeatherDisplay:10.37,2013-05-24 21:35:00,
2013-05-24 17:40:00,49.9,46.5,29.77,South,188,4.0,4.0,88,0.00,CLR,FEW,0.03,WeatherDisplay:10.37,2013-05-24 21:40:00,
2013-05-24 17:45:00,49.7,46.3,29.77,NE,46,4.6,4.6,88,0.00,CLR,FEW,0.03,WeatherDisplay:10.37,2013-05-24 21:45:00,
2013-05-24 17:50:00,49.6,46.8,29.77,WNW,284,3.5,3.5,90,0.00,CLR,FEW,0.03,WeatherDisplay:10.37,2013-05-24 21:50:00,
2013-05-24 17:55:00,49.5,46.4,29.78,NNW,334,5.8,5.8,89,0.00,CLR,FEW,0.03,WeatherDisplay:10.37,2013-05-24 21:55:00,
2013-05-24 18:00:00,49.4,46.3,29.78,WNW,286,3.5,3.5,89,0.00,CLR,FEW,0.03,WeatherDisplay:10.37,2013-05-24 22:00:00,
2013-05-24 18:05:00,49.3,46.2,29.78,WNW,289,4.6,4.6,89,0.00,CLR,FEW,0.03,WeatherDisplay:10.37,2013-05-24 22:05:00,
2013-05-24 18:10:00,49.2,46.1,29.78,NW,313,8.1,8.1,89,0.00,CLR,FEW,0.03,WeatherDisplay:10.37,2013-05-24 22:10:00,
2013-05-24 18:15:00,49.1,46.0,29.78,NE,46,4.6,4.6,89,0.00,CLR,FEW,0.03,WeatherDisplay:10.37,2013-05-24 22:15:00,
2013-05-24 18:20:00,49.1,45.4,29.78,NE,49,10.4,10.4,87,0.00,CLR,FEW,0.03,WeatherDisplay:10.37,2013-05-24 22:20:00,
2013-05-24 18:25:00,48.9,44.9,29.78,NE,44,4.0,4.0,86,0.00,CLR,FEW,0.03,WeatherDisplay:10.37,2013-05-24 22:25:00,
2013-05-24 18:30:00,48.7,44.7,29.78,NW,322,11.5,11.5,86,0.00,CLR,FEW,0.03,WeatherDisplay:10.37,2013-05-24 22:30:00,
2013-05-24 18:35:00,48.5,44.8,29.78,NNW,336,3.5,3.5,87,0.00,CLR,FEW,0.03,WeatherDisplay:10.37,2013-05-24 22:35:00,
2013-05-24 18:40:00,48.5,44.8,29.78,NW,307,4.6,4.6,87,0.00,CLR,FEW,0.03,WeatherDisplay:10.37,2013-05-24 22:40:00,
2013-05-24 18:45:00,48.3,44.6,29.79,NNW,341,9.2,9.2,87,0.00,CLR,FEW,0.03,WeatherDisplay:10.37,2013-05-24 22:45:00,
2013-05-24 18:50:00,48.0,44.6,29.79,North,355,5.8,5.8,88,0.00,CLR,FEW,0.03,WeatherDisplay:10.37,2013-05-24 22:50:00,
2013-05-24 18:55:00,47.9,44.8,29.79,WNW,292,5.0,5.0,89,0.00,CLR,FEW,0.03,WeatherDisplay:10.37,2013-05-24 22:55:00,
2013-05-24 19:00:00,47.7,44.3,29.79,NW,314,5.8,5.8,88,0.00,CLR,FEW,0.03,WeatherDisplay:10.37,2013-05-24 23:00:00,
2013-05-24 19:05:00,47.5,44.1,29.80,NW,313,9.0,9.0,88,0.00,CLR,FEW,0.03,WeatherDisplay:10.37,2013-05-24 23:05:00,
2013-05-24 19:10:00,47.4,44.0,29.80,West,280,3.5,3.5,88,0.00,CLR,FEW,0.03,WeatherDisplay:10.37,2013-05-24 23:10:00,
2013-05-24 19:15:00,47.2,44.1,29.80,NE,42,3.5,3.5,89,0.00,CLR,FEW,0.03,WeatherDisplay:10.37,2013-05-24 23:15:00,
2013-05-24 19:20:00,47.0,43.9,29.80,NW,312,5.8,5.8,89,0.00,CLR,FEW,0.03,WeatherDisplay:10.37,2013-05-24 23:20:00,
2013-05-24 19:25:00,46.9,43.8,29.80,NW,317,8.1,8.1,89,0.00,CLR,FEW,0.03,WeatherDisplay:10.37,2013-05-24 23:25:00,
2013-05-24 19:30:00,46.8,44.0,29.81,NNW,329,6.9,6.9,90,0.00,CLR,FEW,0.03,WeatherDisplay:10.37,2013-05-24 23:30:00,
2013-05-24 19:35:00,46.6,43.8,29.81,NW,315,3.5,3.5,90,0.00,CLR,FEW,0.03,WeatherDisplay:10.37,2013-05-24 23:35:00,
2013-05-24 19:40:00,46.4,43.6,29.81,NNE,22,5.0,5.0,90,0.00,CLR,FEW,0.03,WeatherDisplay:10.37,2013-05-24 23:40:00,
2013-05-24 19:45:00,46.3,43.2,29.81,West,281,4.0,4.0,89,0.00,CLR,FEW,0.03,WeatherDisplay:10.37,2013-05-24 23:45:00,
2013-05-24 19:50:00,46.2,43.4,29.81,NW,320,8.1,8.1,90,0.00,CLR,FEW,0.03,WeatherDisplay:10.37,2013-05-24 23:50:00,
2013-05-24 19:55:00,46.0,43.2,29.81,ENE,59,8.1,8.1,90,0.01,RA,FEW,0.04,WeatherDisplay:10.37,2013-05-24 23:55:00,
2013-05-24 20:00:00,45.9,43.1,29.82,NW,317,3.5,3.5,90,0.01,RA,FEW,0.04,WeatherDisplay:10.37,2013-05-25 00:00:00,
2013-05-24 20:05:00,45.8,43.0,29.82,NNW,331,4.6,4.6,90,0.01,CLR,FEW,0.04,WeatherDisplay:10.37,2013-05-25 00:05:00,
2013-05-24 20:10:00,45.7,42.9,29.82,NNE,23,3.5,3.5,90,0.01,CLR,FEW,0.04,WeatherDisplay:10.37,2013-05-25 00:10:00,
2013-05-24 20:15:00,45.5,42.7,29.82,WNW,291,6.9,6.9,90,0.01,CLR,FEW,0.04,WeatherDisplay:10.37,2013-05-25 00:15:00,
2013-05-24 20:21:00,45.4,42.9,29.82,NW,317,3.5,3.5,91,0.01,CLR,FEW,0.04,WeatherDisplay:10.37,2013-05-25 00:21:00,
2013-05-24 20:26:00,45.3,42.8,29.82,NW,309,4.6,4.6,91,0.01,CLR,FEW,0.04,WeatherDisplay:10.37,2013-05-25 00:26:00,
2013-05-24 20:31:00,45.2,42.7,29.82,NW,315,3.5,3.5,91,0.01,CLR,FEW,0.04,WeatherDisplay:10.37,2013-05-25 00:31:00,
2013-05-24 20:36:00,45.2,42.7,29.82,WNW,302,4.0,4.0,91,0.01,CLR,FEW,0.04,WeatherDisplay:10.37,2013-05-25 00:36:00,
2013-05-24 20:41:00,45.1,42.6,29.82,NNW,327,8.1,8.1,91,0.01,CLR,FEW,0.04,WeatherDisplay:10.37,2013-05-25 00:41:00,
2013-05-24 20:46:00,45.0,42.5,29.82,NNW,348,5.8,5.8,91,0.01,CLR,FEW,0.04,WeatherDisplay:10.37,2013-05-25 00:46:00,
2013-05-24 20:51:00,44.9,42.4,29.81,WNW,292,3.5,3.5,91,0.01,CLR,FEW,0.04,WeatherDisplay:10.37,2013-05-25 00:51:00,
2013-05-24 20:56:00,44.8,42.3,29.82,North,350,3.5,3.5,91,0.00,CLR,FEW,0.04,WeatherDisplay:10.37,2013-05-25 00:56:00,
2013-05-24 21:01:00,44.8,42.3,29.82,North,350,8.1,8.1,91,0.00,CLR,FEW,0.04,WeatherDisplay:10.37,2013-05-25 01:01:00,
2013-05-24 21:06:00,44.8,42.3,29.83,NW,313,5.8,5.8,91,0.00,CLR,FEW,0.04,WeatherDisplay:10.37,2013-05-25 01:06:00,
2013-05-24 21:11:00,44.7,42.2,29.83,NNW,327,7.0,7.0,91,0.00,CLR,FEW,0.04,WeatherDisplay:10.37,2013-05-25 01:11:00,
2013-05-24 21:15:00,44.7,42.2,29.83,NNW,339,3.5,3.5,91,0.00,CLR,FEW,0.04,WeatherDisplay:10.37,2013-05-25 01:15:00,
2013-05-24 21:20:00,44.7,42.2,29.82,NNW,328,4.0,4.0,91,0.00,CLR,FEW,0.04,WeatherDisplay:10.37,2013-05-25 01:20:00,
2013-05-24 21:25:00,44.7,42.2,29.83,NW,304,5.8,5.8,91,0.00,CLR,FEW,0.04,WeatherDisplay:10.37,2013-05-25 01:25:00,
2013-05-24 21:30:00,44.6,42.1,29.83,ENE,74,5.0,5.0,91,0.00,CLR,FEW,0.04,WeatherDisplay:10.37,2013-05-25 01:30:00,
2013-05-24 21:35:00,44.6,42.1,29.83,NW,306,3.5,3.5,91,0.00,CLR,FEW,0.04,WeatherDisplay:10.37,2013-05-25 01:35:00,
2013-05-24 21:42:00,44.6,42.1,29.84,NW,311,8.1,8.1,91,0.00,CLR,FEW,0.04,WeatherDisplay:10.37,2013-05-25 01:42:00,
2013-05-24 21:47:00,44.6,42.4,29.83,NNE,30,3.5,3.5,92,0.00,CLR,FEW,0.04,WeatherDisplay:10.37,2013-05-25 01:47:00,
2013-05-24 21:52:00,44.6,42.4,29.83,WNW,290,6.9,6.9,92,0.00,CLR,FEW,0.04,WeatherDisplay:10.37,2013-05-25 01:52:00,
2013-05-24 21:57:00,44.5,42.3,29.83,NW,313,3.5,3.5,92,0.00,CLR,FEW,0.04,WeatherDisplay:10.37,2013-05-25 01:57:00,
2013-05-24 22:02:00,44.4,42.5,29.83,NW,314,3.5,3.5,93,0.00,CLR,FEW,0.04,WeatherDisplay:10.37,2013-05-25 02:02:00,
2013-05-24 22:07:00,44.2,42.3,29.83,NNW,346,5.8,5.8,93,0.00,CLR,FEW,0.04,WeatherDisplay:10.37,2013-05-25 02:07:00,
2013-05-24 22:12:00,44.1,42.5,29.83,NE,40,3.5,3.5,94,0.00,CLR,FEW,0.04,WeatherDisplay:10.37,2013-05-25 02:12:00,
2013-05-24 22:17:00,44.0,42.4,29.84,NW,323,1.2,1.2,94,0.00,CLR,FEW,0.04,WeatherDisplay:10.37,2013-05-25 02:17:00,
2013-05-24 22:22:00,43.9,42.3,29.84,NE,38,5.8,5.8,94,0.00,CLR,FEW,0.04,WeatherDisplay:10.37,2013-05-25 02:22:00,
2013-05-24 22:27:00,43.7,42.1,29.84,NNE,18,3.5,3.5,94,0.00,CLR,FEW,0.04,WeatherDisplay:10.37,2013-05-25 02:27:00,
2013-05-24 22:32:00,43.7,42.1,29.84,NNW,342,3.5,3.5,94,0.00,CLR,FEW,0.04,WeatherDisplay:10.37,2013-05-25 02:32:00,
2013-05-24 22:37:00,43.6,42.3,29.84,East,92,4.0,4.0,95,0.00,CLR,FEW,0.04,WeatherDisplay:10.37,2013-05-25 02:37:00,
2013-05-24 22:42:00,43.6,42.3,29.84,NW,318,3.5,3.5,95,0.00,CLR,FEW,0.04,WeatherDisplay:10.37,2013-05-25 02:42:00,
2013-05-24 22:47:00,43.6,42.3,29.84,NE,34,3.5,3.5,95,0.00,CLR,FEW,0.04,WeatherDisplay:10.37,2013-05-25 02:47:00,
2013-05-24 22:52:00,43.6,42.3,29.84,North,360,3.5,3.5,95,0.00,CLR,FEW,0.04,WeatherDisplay:10.37,2013-05-25 02:52:00,
2013-05-24 22:58:00,43.5,42.2,29.84,NW,323,3.5,3.5,95,0.00,CLR,FEW,0.04,WeatherDisplay:10.37,2013-05-25 02:58:00,
2013-05-24 23:03:00,43.6,42.3,29.84,NW,319,6.0,6.0,95,0.00,CLR,FEW,0.04,WeatherDisplay:10.37,2013-05-25 03:03:00,
2013-05-24 23:08:00,43.5,42.2,29.84,NW,304,4.6,4.6,95,0.00,CLR,FEW,0.04,WeatherDisplay:10.37,2013-05-25 03:08:00,
2013-05-24 23:13:00,43.5,42.2,29.84,NW,317,3.5,3.5,95,0.00,CLR,FEW,0.04,WeatherDisplay:10.37,2013-05-25 03:13:00,
2013-05-24 23:18:00,43.5,42.2,29.84,ENE,70,4.6,4.6,95,0.00,CLR,FEW,0.04,WeatherDisplay:10.37,2013-05-25 03:18:00,
2013-05-24 23:23:00,43.5,42.2,29.84,NNE,30,2.3,2.3,95,0.00,CLR,FEW,0.04,WeatherDisplay:10.37,2013-05-25 03:23:00,
2013-05-24 23:28:00,43.5,42.2,29.84,NNW,342,10.4,10.4,95,0.00,CLR,FEW,0.04,WeatherDisplay:10.37,2013-05-25 03:28:00,
2013-05-24 23:33:00,43.4,42.1,29.84,NW,323,4.0,4.1,95,0.00,CLR,FEW,0.04,WeatherDisplay:10.37,2013-05-25 03:33:00,
2013-05-24 23:38:00,43.4,42.1,29.84,NNW,329,3.5,3.5,95,0.00,CLR,FEW,0.04,WeatherDisplay:10.37,2013-05-25 03:38:00,
2013-05-24 23:43:00,43.4,42.3,29.84,NNW,331,3.5,3.5,96,0.00,CLR,FEW,0.04,WeatherDisplay:10.37,2013-05-25 03:43:00,
2013-05-24 23:48:00,43.5,42.4,29.83,NW,324,3.5,3.5,96,0.00,CLR,FEW,0.04,WeatherDisplay:10.37,2013-05-25 03:48:00,
2013-05-24 23:53:00,43.4,42.3,29.83,ESE,123,4.6,4.6,96,0.00,CLR,FEW,0.04,WeatherDisplay:10.37,2013-05-25 03:53:00,
2013-05-24 23:58:00,43.4,42.1,29.83,NNW,340,3.5,3.5,95,0.00,CLR,FEW,0.04,WeatherDisplay:10.37,2013-05-25 03:58:00,